DLH407 EVRA-ULAA

Flight info

Callsign DLH407
Flight time N/A
Altitude 39000
Route VANAG M990 VALGA DCT TUKMA P989 MEGAS/K0863F390 P989 BESNO T693 DISUP T821 MAKOG
Aircraft B38M/M-SDE1FGHILORVWXY/HB1

Departure

Time 2026-04-28 17:11
Airport Riga International Airport (EVRA)

Arrival

Time N/A
Airport Talagi Airport (ULAA)
Time Latitude Longitude Altitude Speed Heading
2026-04-28 16:57 56.92191 23.97590 46 ft 0 kts
2026-04-28 17:03 56.92187 23.97589 46 ft 2 kts
2026-04-28 17:03 56.92170 23.97587 46 ft 3 kts 355°
2026-04-28 17:03 56.92152 23.97599 46 ft 3 kts 326°
2026-04-28 17:04 56.92133 23.97661 46 ft 2 kts 275°
2026-04-28 17:04 56.92133 23.97663 46 ft 0 kts 275°
2026-04-28 17:05 56.92133 23.97662 46 ft 0 kts 275°
2026-04-28 17:06 56.92133 23.97650 46 ft 0 kts 275°
2026-04-28 17:07 56.92134 23.97641 46 ft 4 kts 275°
2026-04-28 17:07 56.92138 23.97545 46 ft 5 kts 275°
2026-04-28 17:07 56.92135 23.97507 46 ft 7 kts 248°
2026-04-28 17:07 56.92068 23.97459 46 ft 15 kts 182°
2026-04-28 17:08 56.91924 23.97440 46 ft 26 kts 183°
2026-04-28 17:08 56.91720 23.97406 46 ft 27 kts 185°
2026-04-28 17:08 56.91547 23.97377 46 ft 24 kts 185°
2026-04-28 17:08 56.91424 23.97357 46 ft 13 kts 187°
2026-04-28 17:09 56.91368 23.97340 46 ft 7 kts 197°
2026-04-28 17:09 56.91305 23.97237 46 ft 18 kts 231°
2026-04-28 17:09 56.91268 23.97151 46 ft 0 kts 242°
2026-04-28 17:10 56.91261 23.97125 46 ft 7 kts 248°
2026-04-28 17:10 56.91259 23.96987 46 ft 11 kts 299°
2026-04-28 17:10 56.91300 23.96943 46 ft 0 kts
2026-04-28 17:11 56.91380 23.96959 46 ft 41 kts
2026-04-28 17:11 56.92059 23.97068 46 ft 153 kts
2026-04-28 17:11 56.93330 23.97270 758 ft 198 kts
2026-04-28 17:11 56.94622 23.97445 2643 ft 186 kts
2026-04-28 17:12 56.95995 23.97648 3813 ft 212 kts
2026-04-28 17:12 56.97531 23.97894 4889 ft 236 kts
2026-04-28 17:12 56.99266 23.98182 6033 ft 257 kts
2026-04-28 17:12 57.01070 23.98489 7306 ft 269 kts
2026-04-28 17:13 57.02959 23.98816 8694 ft 276 kts
2026-04-28 17:13 57.04884 23.99151 10113 ft 278 kts
2026-04-28 17:13 57.06825 23.99577 11571 ft 285 kts 11°
2026-04-28 17:13 57.08740 24.00532 13060 ft 286 kts 16°
2026-04-28 17:14 57.10659 24.01559 14466 ft 289 kts 16°
2026-04-28 17:14 57.12649 24.02624 15357 ft 306 kts 16°
2026-04-28 17:14 57.14747 24.03748 16115 ft 323 kts 16°
2026-04-28 17:14 57.16963 24.04936 16831 ft 339 kts 16°
2026-04-28 17:15 57.19265 24.06171 17690 ft 348 kts 16°
2026-04-28 17:15 57.21609 24.07431 18639 ft 353 kts 16°
2026-04-28 17:15 57.23983 24.08709 19553 ft 358 kts 16°
2026-04-28 17:15 57.26394 24.10009 20430 ft 363 kts 16°
2026-04-28 17:16 57.28834 24.11326 21272 ft 368 kts 16°
2026-04-28 17:16 57.31311 24.12664 22084 ft 373 kts 16°
2026-04-28 17:16 57.33722 24.14482 22822 ft 378 kts 30°
2026-04-28 17:16 57.35751 24.17585 23585 ft 382 kts 47°
2026-04-28 17:17 57.37253 24.21662 24313 ft 385 kts 61°
2026-04-28 17:17 57.38477 24.26111 25017 ft 390 kts 64°
2026-04-28 17:17 57.39653 24.30597 25681 ft 394 kts 64°
2026-04-28 17:17 57.40854 24.35267 26345 ft 398 kts 64°
2026-04-28 17:18 57.42025 24.39885 26973 ft 402 kts 65°
2026-04-28 17:18 57.43236 24.44596 27588 ft 406 kts 64°
2026-04-28 17:18 57.44458 24.49345 28183 ft 410 kts 64°
2026-04-28 17:18 57.45690 24.54153 28761 ft 414 kts 64°
2026-04-28 17:19 57.47065 24.58866 29279 ft 418 kts 55°
2026-04-28 17:19 57.49044 24.62822 29861 ft 420 kts 43°
2026-04-28 17:19 57.51216 24.66419 30374 ft 424 kts 41°
2026-04-28 17:19 57.53472 24.70102 30884 ft 428 kts 43°
2026-04-28 17:20 57.55320 24.74479 31358 ft 431 kts 59°
2026-04-28 17:20 57.56271 24.77739 31723 ft 433 kts 62°
2026-04-28 17:20 57.58100 24.84471 32347 ft 438 kts 63°
2026-04-28 17:20 57.59455 24.89589 32818 ft 441 kts 64°
2026-04-28 17:21 57.60803 24.94752 33282 ft 444 kts 64°
2026-04-28 17:21 57.62154 24.99956 33737 ft 448 kts 64°
2026-04-28 17:21 57.63512 25.05210 34184 ft 451 kts 64°
2026-04-28 17:22 57.66249 25.15835 35039 ft 457 kts 64°
2026-04-28 17:22 57.67627 25.21204 35456 ft 460 kts 64°
2026-04-28 17:22 57.69005 25.26587 36001 ft 459 kts 64°
2026-04-28 17:23 57.71748 25.37342 37032 ft 457 kts 64°
2026-04-28 17:23 57.73113 25.42713 37493 ft 457 kts 64°
2026-04-28 17:23 57.74458 25.48017 37929 ft 457 kts 64°
2026-04-28 17:23 57.75819 25.53399 38356 ft 457 kts 65°
2026-04-28 17:24 57.77178 25.58785 38766 ft 457 kts 65°
2026-04-28 17:24 57.78541 25.64200 39003 ft 461 kts 65°
2026-04-28 17:24 57.81258 25.75035 39000 ft 459 kts 65°
2026-04-28 17:25 57.85772 25.90798 39002 ft 459 kts 48°
2026-04-28 17:26 57.90654 25.98483 38999 ft 458 kts 37°
2026-04-28 17:26 57.95799 26.05600 38999 ft 458 kts 36°
2026-04-28 17:27 58.00973 26.12636 38999 ft 458 kts 36°
2026-04-28 17:27 58.06149 26.19673 39000 ft 458 kts 36°
2026-04-28 17:28 58.11321 26.26729 38999 ft 458 kts 36°
2026-04-28 17:28 58.19042 26.37309 38999 ft 458 kts 36°
2026-04-28 17:29 58.24203 26.44413 38999 ft 458 kts 36°
2026-04-28 17:30 58.31943 26.55118 38999 ft 458 kts 36°
2026-04-28 17:30 58.39677 26.65874 39000 ft 458 kts 36°
2026-04-28 17:31 58.47363 26.76622 38999 ft 458 kts 36°
2026-04-28 17:32 58.55073 26.87463 39000 ft 458 kts 36°
2026-04-28 17:32 58.60213 26.94725 38999 ft 458 kts 36°
2026-04-28 17:33 58.65340 27.01993 38999 ft 458 kts 36°
2026-04-28 17:33 58.68771 27.06871 38999 ft 458 kts 36°
2026-04-28 17:34 58.72851 27.13353 38992 ft 458 kts 49°
2026-04-28 17:34 58.74660 27.18400 39006 ft 459 kts 60°
2026-04-28 17:34 58.77670 27.29247 39000 ft 458 kts 63°
2026-04-28 17:35 58.80513 27.40210 38999 ft 458 kts 64°
2026-04-28 17:35 58.83320 27.51271 38999 ft 458 kts 64°
2026-04-28 17:36 58.86109 27.62337 38999 ft 458 kts 64°
2026-04-28 17:36 58.88421 27.71555 38999 ft 458 kts 64°
2026-04-28 17:37 58.91194 27.82658 39000 ft 458 kts 64°
2026-04-28 17:37 58.93957 27.93782 38999 ft 458 kts 64°
2026-04-28 17:38 58.96713 28.04929 39000 ft 458 kts 64°
2026-04-28 17:38 58.99458 28.16091 39000 ft 458 kts 64°
2026-04-28 17:39 59.02194 28.27273 38999 ft 458 kts 64°
2026-04-28 17:40 59.06280 28.44081 39000 ft 458 kts 65°
2026-04-28 17:40 59.08974 28.55230 39000 ft 458 kts 65°
2026-04-28 17:41 59.11675 28.66472 38999 ft 458 kts 65°
2026-04-28 17:41 59.14372 28.77735 38999 ft 458 kts 65°
2026-04-28 17:42 59.17050 28.89005 38999 ft 458 kts 65°
2026-04-28 17:42 59.19723 29.00295 39000 ft 458 kts 65°
2026-04-28 17:43 59.22385 29.11601 39000 ft 458 kts 65°
2026-04-28 17:43 59.24788 29.21855 39000 ft 458 kts 65°
2026-04-28 17:44 59.26924 29.31014 38999 ft 458 kts 65°
2026-04-28 17:44 59.29563 29.42380 38999 ft 458 kts 65°
2026-04-28 17:45 59.32189 29.53751 38999 ft 458 kts 65°
2026-04-28 17:45 59.34791 29.65081 39000 ft 458 kts 66°
2026-04-28 17:46 59.37399 29.76493 39000 ft 458 kts 66°
2026-04-28 17:46 59.39998 29.87931 39000 ft 458 kts 66°
2026-04-28 17:47 59.42584 29.99371 39000 ft 458 kts 66°
2026-04-28 17:47 59.45163 30.10843 39000 ft 458 kts 66°
2026-04-28 17:48 59.47730 30.22323 38999 ft 458 kts 66°
2026-04-28 17:48 59.50289 30.33829 39000 ft 458 kts 66°
2026-04-28 17:49 59.52835 30.45340 39000 ft 458 kts 66°
2026-04-28 17:49 59.55371 30.56873 38999 ft 458 kts 66°
2026-04-28 17:50 59.57897 30.68418 38999 ft 458 kts 66°
2026-04-28 17:50 59.61451 30.78661 38994 ft 458 kts 41°
2026-04-28 17:51 59.66572 30.86143 38999 ft 458 kts 37°
2026-04-28 17:51 59.71642 30.93779 38999 ft 458 kts 38°
2026-04-28 17:52 59.76685 31.01539 38999 ft 458 kts 38°
2026-04-28 17:52 59.84223 31.13226 39000 ft 458 kts 38°
2026-04-28 17:53 59.89239 31.21041 38999 ft 458 kts 38°
2026-04-28 17:53 59.94254 31.28888 38999 ft 458 kts 38°
2026-04-28 17:54 59.99265 31.36759 39000 ft 458 kts 38°
2026-04-28 17:54 60.04271 31.44652 38999 ft 458 kts 38°
2026-04-28 17:55 60.09244 31.52525 38999 ft 458 kts 38°
2026-04-28 17:55 60.14239 31.60464 38999 ft 458 kts 38°
2026-04-28 17:56 60.19225 31.68421 39000 ft 458 kts 38°
2026-04-28 17:56 60.24214 31.76413 38999 ft 458 kts 38°
2026-04-28 17:57 60.29191 31.84420 38999 ft 458 kts 38°
2026-04-28 17:57 60.34168 31.92458 38999 ft 458 kts 39°
2026-04-28 17:58 60.39139 32.00519 38999 ft 458 kts 39°
2026-04-28 17:58 60.44103 32.08601 38999 ft 458 kts 39°
2026-04-28 17:59 60.49034 32.16661 39000 ft 458 kts 39°
2026-04-28 17:59 60.54003 32.24819 39000 ft 458 kts 39°
2026-04-28 18:00 60.58961 32.32989 39000 ft 458 kts 39°
2026-04-28 18:00 60.63908 32.41175 38999 ft 458 kts 39°
2026-04-28 18:01 60.68817 32.49332 39000 ft 458 kts 39°
2026-04-28 18:01 60.73754 32.57568 38999 ft 458 kts 39°
2026-04-28 18:02 60.78683 32.65825 38999 ft 458 kts 39°
2026-04-28 18:02 60.83608 32.74109 38999 ft 458 kts 39°
2026-04-28 18:03 60.88535 32.82430 38999 ft 458 kts 39°
2026-04-28 18:03 60.93447 32.90762 38999 ft 458 kts 39°
2026-04-28 18:04 60.98359 32.99127 39000 ft 458 kts 39°
2026-04-28 18:04 61.03267 33.07521 39000 ft 458 kts 40°
2026-04-28 18:05 61.07340 33.14512 38999 ft 458 kts 40°
2026-04-28 18:05 61.13064 33.24379 38999 ft 458 kts 40°
2026-04-28 18:06 61.17920 33.32788 38999 ft 458 kts 40°
2026-04-28 18:06 61.22804 33.41280 39000 ft 458 kts 40°
2026-04-28 18:07 61.27621 33.49691 38999 ft 458 kts 40°
2026-04-28 18:07 61.32556 33.58344 38999 ft 458 kts 40°
2026-04-28 18:08 61.37426 33.66920 38999 ft 458 kts 40°
2026-04-28 18:08 61.42297 33.75533 38999 ft 458 kts 40°
2026-04-28 18:09 61.47154 33.84159 39000 ft 458 kts 40°
2026-04-28 18:09 61.51974 33.92755 39000 ft 458 kts 40°
2026-04-28 18:10 61.56820 34.01435 39000 ft 458 kts 40°
2026-04-28 18:10 61.61660 34.10140 39000 ft 458 kts 40°
2026-04-28 18:11 61.66505 34.18891 39000 ft 458 kts 40°
2026-04-28 18:11 61.71333 34.27650 38999 ft 458 kts 41°
2026-04-28 18:12 61.76157 34.36439 38999 ft 458 kts 41°
2026-04-28 18:12 61.80977 34.45259 39000 ft 458 kts 41°
2026-04-28 18:13 61.85791 34.54105 39000 ft 458 kts 41°
2026-04-28 18:13 61.90564 34.62914 39000 ft 458 kts 41°
2026-04-28 18:14 61.95363 34.71810 38999 ft 458 kts 41°
2026-04-28 18:14 62.00166 34.80751 38999 ft 458 kts 41°
2026-04-28 18:15 62.04951 34.89698 38491 ft 455 kts 41°
2026-04-28 18:15 62.07309 34.94122 38018 ft 447 kts 41°
2026-04-28 18:15 62.09594 34.98417 37990 ft 430 kts 41°
2026-04-28 18:16 62.14094 35.06903 38004 ft 443 kts 41°
2026-04-28 18:16 62.18788 35.15791 37649 ft 455 kts 41°
2026-04-28 18:17 62.21189 35.20353 37282 ft 455 kts 41°
2026-04-28 18:17 62.23525 35.24801 36923 ft 455 kts 41°
2026-04-28 18:17 62.25894 35.29321 36558 ft 455 kts 41°
2026-04-28 18:17 62.28257 35.33840 36194 ft 456 kts 41°
2026-04-28 18:18 62.30624 35.38377 35829 ft 456 kts 41°
2026-04-28 18:18 62.32990 35.42920 35465 ft 457 kts 41°
2026-04-28 18:18 62.35360 35.47484 35099 ft 458 kts 42°
2026-04-28 18:18 62.36932 35.50514 34857 ft 458 kts 42°
2026-04-28 18:19 62.40113 35.56665 34365 ft 460 kts 42°
2026-04-28 18:19 62.42496 35.61280 33997 ft 460 kts 42°
2026-04-28 18:19 62.44877 35.65905 33628 ft 461 kts 42°
2026-04-28 18:19 62.47258 35.70540 33259 ft 461 kts 42°
2026-04-28 18:20 62.49647 35.75201 32799 ft 462 kts 42°
2026-04-28 18:20 62.52029 35.79858 32199 ft 462 kts 42°
2026-04-28 18:20 62.54412 35.84530 31575 ft 463 kts 42°
2026-04-28 18:20 62.56803 35.89225 30863 ft 464 kts 42°
2026-04-28 18:21 62.59196 35.93936 30122 ft 465 kts 42°
2026-04-28 18:21 62.61594 35.98668 29378 ft 466 kts 42°
2026-04-28 18:21 62.63993 36.03413 28636 ft 468 kts 42°
2026-04-28 18:21 62.66406 36.08195 27891 ft 470 kts 42°
2026-04-28 18:22 62.68824 36.13000 27147 ft 471 kts 42°
2026-04-28 18:22 62.71248 36.17826 26402 ft 473 kts 42°
2026-04-28 18:22 62.73670 36.22661 25588 ft 469 kts 42°
2026-04-28 18:22 62.76056 36.27434 24883 ft 460 kts 43°
2026-04-28 18:23 62.78378 36.32090 24418 ft 446 kts 43°
2026-04-28 18:23 62.79874 36.35096 24020 ft 439 kts 43°
2026-04-28 18:23 62.82851 36.41090 23018 ft 431 kts 43°
2026-04-28 18:23 62.84304 36.44020 22507 ft 427 kts 43°
2026-04-28 18:24 62.87180 36.49835 21487 ft 421 kts 43°
2026-04-28 18:24 62.87900 36.51293 21231 ft 419 kts 43°
2026-04-28 18:24 62.91434 36.58465 19961 ft 411 kts 43°
2026-04-28 18:24 62.93519 36.62710 19206 ft 407 kts 43°
2026-04-28 18:25 62.94886 36.65496 18708 ft 404 kts 43°
2026-04-28 18:25 62.96936 36.69682 17958 ft 399 kts 43°
2026-04-28 18:25 62.98959 36.73820 17215 ft 395 kts 43°
2026-04-28 18:26 63.02934 36.81977 15895 ft 383 kts 43°
2026-04-28 18:26 63.04856 36.85932 15586 ft 372 kts 43°
2026-04-28 18:26 63.06748 36.89833 15289 ft 378 kts 43°
2026-04-28 18:26 63.08681 36.93827 14982 ft 383 kts 43°
2026-04-28 18:27 63.10629 36.97859 14675 ft 384 kts 43°
2026-04-28 18:27 63.12572 37.01887 14366 ft 383 kts 43°
2026-04-28 18:27 63.14509 37.05912 14058 ft 381 kts 43°
2026-04-28 18:27 63.16435 37.09921 13752 ft 379 kts 43°
2026-04-28 18:28 63.18351 37.13919 13437 ft 378 kts 43°
2026-04-28 18:28 63.20257 37.17901 13091 ft 376 kts 43°
2026-04-28 18:28 63.22153 37.21870 12717 ft 374 kts 43°
2026-04-28 18:28 63.24037 37.25822 12332 ft 370 kts 43°
2026-04-28 18:29 63.25883 37.29702 11935 ft 358 kts 43°
2026-04-28 18:29 63.27668 37.33460 11531 ft 347 kts 43°
2026-04-28 18:29 63.29390 37.37092 11122 ft 336 kts 43°
2026-04-28 18:29 63.31044 37.40586 10710 ft 327 kts 43°
2026-04-28 18:30 63.32669 37.44024 10295 ft 319 kts 44°
2026-04-28 18:30 63.33735 37.46283 10009 ft 314 kts 44°
2026-04-28 18:30 63.35803 37.50672 9439 ft 305 kts 44°
2026-04-28 18:30 63.37321 37.53900 8984 ft 294 kts 44°
2026-04-28 18:31 63.38774 37.56994 8539 ft 284 kts 44°
2026-04-28 18:31 63.40179 37.59989 8094 ft 275 kts 44°
2026-04-28 18:31 63.41544 37.62905 7655 ft 267 kts 44°
2026-04-28 18:31 63.42861 37.65722 7320 ft 257 kts 44°
2026-04-28 18:32 63.44144 37.68468 7079 ft 255 kts 44°
2026-04-28 18:32 63.45428 37.71222 7025 ft 258 kts 44°
2026-04-28 18:32 63.46735 37.74027 7006 ft 261 kts 44°
2026-04-28 18:32 63.48031 37.76812 7001 ft 262 kts 44°
2026-04-28 18:33 63.49342 37.79636 7000 ft 262 kts 44°
2026-04-28 18:33 63.50671 37.82501 6999 ft 262 kts 44°
2026-04-28 18:33 63.51983 37.85332 7000 ft 262 kts 44°
2026-04-28 18:33 63.53295 37.88168 6999 ft 262 kts 44°
2026-04-28 18:34 63.54607 37.91007 7000 ft 262 kts 44°
2026-04-28 18:34 63.55900 37.93810 6999 ft 262 kts 44°
2026-04-28 18:34 63.57212 37.96656 6999 ft 262 kts 44°
2026-04-28 18:34 63.58520 37.99498 6999 ft 262 kts 44°
2026-04-28 18:35 63.59829 38.02347 6999 ft 262 kts 44°
2026-04-28 18:35 63.61135 38.05192 6999 ft 262 kts 44°
2026-04-28 18:35 63.62444 38.08048 6999 ft 262 kts 44°
2026-04-28 18:35 63.63750 38.10902 6999 ft 262 kts 44°
2026-04-28 18:36 63.65055 38.13756 6999 ft 262 kts 44°
2026-04-28 18:36 63.66359 38.16614 6999 ft 262 kts 44°
2026-04-28 18:36 63.67665 38.19478 6999 ft 262 kts 44°
2026-04-28 18:36 63.68970 38.22345 6999 ft 262 kts 44°
2026-04-28 18:37 63.70273 38.25212 6999 ft 262 kts 44°
2026-04-28 18:37 63.71577 38.28084 7002 ft 262 kts 44°
2026-04-28 18:37 63.72880 38.30956 7000 ft 262 kts 44°
2026-04-28 18:37 63.74183 38.33834 7000 ft 262 kts 44°
2026-04-28 18:38 63.75485 38.36715 7000 ft 262 kts 44°
2026-04-28 18:38 63.76788 38.39600 7000 ft 262 kts 44°
2026-04-28 18:38 63.78088 38.42483 7000 ft 262 kts 44°
2026-04-28 18:38 63.79372 38.45335 7000 ft 262 kts 44°
2026-04-28 18:39 63.80674 38.48230 7000 ft 262 kts 44°
2026-04-28 18:39 63.81971 38.51119 7000 ft 262 kts 44°
2026-04-28 18:39 63.83270 38.54015 7000 ft 262 kts 44°
2026-04-28 18:39 63.84568 38.56912 7000 ft 262 kts 44°
2026-04-28 18:40 63.85864 38.59811 7000 ft 262 kts 44°
2026-04-28 18:40 63.87160 38.62711 7000 ft 262 kts 45°
2026-04-28 18:40 63.88455 38.65616 7000 ft 262 kts 45°
2026-04-28 18:40 63.89750 38.68522 7000 ft 262 kts 45°
2026-04-28 18:41 63.91045 38.71434 7000 ft 262 kts 45°
2026-04-28 18:41 63.92339 38.74348 7000 ft 262 kts 45°
2026-04-28 18:41 63.93632 38.77263 7000 ft 262 kts 45°
2026-04-28 18:41 63.94929 38.80189 7000 ft 262 kts 45°
2026-04-28 18:42 63.96221 38.83110 7000 ft 262 kts 45°
2026-04-28 18:42 63.97511 38.86032 7000 ft 262 kts 45°
2026-04-28 18:42 63.98802 38.88958 7000 ft 262 kts 45°
2026-04-28 18:42 64.00093 38.91887 7000 ft 262 kts 45°
2026-04-28 18:43 64.01377 38.94807 7000 ft 262 kts 45°
2026-04-28 18:43 64.02672 38.97755 7000 ft 262 kts 45°
2026-04-28 18:43 64.03942 39.00649 7000 ft 262 kts 45°
2026-04-28 18:43 64.05248 39.03630 6999 ft 262 kts 45°
2026-04-28 18:44 64.06338 39.06878 6958 ft 262 kts 59°
2026-04-28 18:44 64.07998 39.14277 6912 ft 262 kts 64°
2026-04-28 18:44 64.08796 39.18013 6865 ft 261 kts 64°
2026-04-28 18:45 64.09586 39.21753 6823 ft 261 kts 64°
2026-04-28 18:45 64.10371 39.25505 6783 ft 261 kts 64°
2026-04-28 18:45 64.11151 39.29250 6745 ft 261 kts 64°
2026-04-28 18:45 64.11930 39.33005 6707 ft 261 kts 64°
2026-04-28 18:46 64.12700 39.36731 6669 ft 260 kts 65°
2026-04-28 18:46 64.13469 39.40455 6631 ft 260 kts 65°
2026-04-28 18:46 64.14241 39.44207 6593 ft 260 kts 65°
2026-04-28 18:46 64.15012 39.47956 6555 ft 260 kts 65°
2026-04-28 18:47 64.15779 39.51698 6517 ft 260 kts 65°
2026-04-28 18:47 64.16550 39.55460 6479 ft 260 kts 65°
2026-04-28 18:47 64.17316 39.59211 6442 ft 260 kts 65°
2026-04-28 18:47 64.18083 39.62968 6404 ft 259 kts 65°
2026-04-28 18:48 64.18846 39.66714 6366 ft 259 kts 65°
2026-04-28 18:48 64.19609 39.70467 6328 ft 259 kts 65°
2026-04-28 18:48 64.20369 39.74214 6290 ft 259 kts 65°
2026-04-28 18:48 64.21128 39.77961 6253 ft 259 kts 65°
2026-04-28 18:49 64.21887 39.81713 6215 ft 259 kts 65°
2026-04-28 18:49 64.22143 39.82980 6202 ft 259 kts 65°
2026-04-28 18:49 64.23399 39.89215 6036 ft 257 kts 65°
2026-04-28 18:49 64.24151 39.92952 6010 ft 258 kts 65°
2026-04-28 18:50 64.24904 39.96701 6002 ft 258 kts 65°
2026-04-28 18:50 64.25655 40.00442 6000 ft 258 kts 65°
2026-04-28 18:50 64.26394 40.04142 5981 ft 258 kts 65°
2026-04-28 18:50 64.27153 40.07948 5918 ft 258 kts 65°
2026-04-28 18:51 64.27900 40.11697 5858 ft 257 kts 65°
2026-04-28 18:51 64.28646 40.15447 5797 ft 257 kts 65°
2026-04-28 18:51 64.29388 40.19187 5736 ft 257 kts 65°
2026-04-28 18:51 64.30130 40.22931 5674 ft 257 kts 65°
2026-04-28 18:52 64.30870 40.26675 5611 ft 257 kts 65°
2026-04-28 18:52 64.31609 40.30417 5549 ft 256 kts 65°
2026-04-28 18:52 64.32098 40.32898 5507 ft 256 kts 65°